Location: *
(47.0830°N, 3.5000°E)
Time: 10:34:29
(UTC+00:00)

Daily predictions for brighter satellites

Satellite Brightness Start Highest point End
(mag) Time Altitude Azimuth Time Altitude Azimuth Time Altitude Azimuth
Cosmos 1844 Rocket 3.7 16:22:23 10° NW 16:27:48 52° WSW 16:33:11 10° S
Cosmos 1340 2.9 16:28:14 10° NNW 16:32:02 76° W 16:35:48 10° S
RESURS DK-1 2.7 16:29:48 10° S 16:33:46 49° ESE 16:37:46 10° NE
Cosmos 1500 3.9 16:30:49 10° N 16:34:14 31° ENE 16:37:37 10° SE
YAOGAN 6 4.4 16:33:56 10° E 16:35:13 12° ENE 16:36:30 10° NE
Cosmos 1862 Rocket 4.4 16:32:22 10° SSE 16:36:09 30° E 16:39:59 10° NNE
Cosmos 1943 Rocket 4.0 16:35:27 10° NNE 16:37:01 11° NNE 16:38:33 10° NE
Okean O Rocket 1.9 16:32:43 10° S 16:37:03 71° WSW 16:41:24 10° NNW
IRS-1C Rocket 4.2 16:32:41 10° SE 16:37:48 54° ENE 16:42:56 10° N
ISS -3.8 16:36:54 10° WNW 16:40:16 83° NNE 16:43:38 10° ESE
Cosmos 1980 4.5 16:35:31 10° SSE 16:40:27 32° ESE 16:45:25 10° NE
Envisat 3.8 16:37:02 10° ESE 16:41:21 29° ENE 16:45:41 10° N
Cosmos 1602 4.4 16:37:49 10° NNW 16:41:39 59° W 16:45:28 10° S
SMAP 3.3 16:37:51 10° SE 16:42:20 49° ENE 16:46:51 10° N
SJ-7 4.5 16:38:50 10° SSE 16:43:02 86° ENE 16:47:12 10° NNW
Feng Yun 1-1 Rocket 4.2 16:42:53 10° SSE 16:48:11 61° ENE 16:53:31 10° N
STARLINK-67 3.7 16:46:21 10° W 16:48:53 32° NNW 16:51:04 13° NE
H-2A R/B 2.9 16:45:27 10° SE 16:48:59 45° ENE 16:52:31 10° N
ALOS 3.8 16:46:50 10° SSW 16:51:14 41° W 16:55:41 10° NNW
Cosmos 1707 Rocket 3.7 16:47:16 10° S 16:51:44 85° W 16:56:15 10° N
Cosmos 1992 Rocket 4.1 16:48:10 10° NNW 16:53:18 53° ENE 16:58:24 10° SE
Okean-O 3.2 16:49:21 10° SE 16:53:24 36° ENE 16:57:26 10° N
Cosmos 2279 Rocket 4.2 16:48:34 10° N 16:54:50 80° W 17:01:06 10° S
COBE Rocket 4.1 16:50:44 10° NNE 16:55:14 47° E 16:59:44 10° S
Cosmos 304 Rocket 4.4 16:51:00 10° NNW 16:55:45 61° WSW 17:00:29 10° S
Cosmos 1536 3.3 16:52:01 10° N 16:55:46 36° ENE 16:59:30 10° SE
ATLAS 3B R/B 3.9 16:50:33 10° NW 16:56:54 46° WSW 17:03:25 10° S
CZ-4B R/B 3.7 16:54:16 10° NNW 16:57:11 24° WNW 17:00:02 10° WSW
COSMOS 2428 2.8 16:51:52 10° SSW 16:57:33 85° WNW 17:03:18 10° NNE
BREEZE-M R/B 3.3 16:51:23 10° W 16:57:58 65° N 17:00:45 15° ENE
USA 267 3.5 16:51:27 10° SE 16:57:59 77° SW 17:04:34 10° NW
Meteor 1-5 Rocket 4.1 16:56:21 10° N 17:01:57 86° ENE 17:07:20 10° SSE
Shenzhou-11 Module 3.1 16:59:58 10° WSW 17:02:29 32° S 17:04:47 11° ESE
NOSS 3-4 (A) 4.0 16:56:40 10° WSW 17:02:35 54° NW 17:08:56 10° NE
NOSS 3-4 (C) 4.0 16:56:45 10° WSW 17:02:41 54° NW 17:09:03 10° NE
STARLINK-46 2.6 17:02:21 10° WSW 17:04:59 65° NNW 17:06:36 21° NE
Cosmos 292 Rocket 4.2 17:01:26 10° N 17:06:00 38° ENE 17:10:33 10° SE
Lacrosse 5 rocket 1.3 17:04:04 10° SW 17:08:23 83° SE 17:11:25 18° NE
AQUARIUS 4.1 17:04:57 10° SSE 17:09:26 81° ENE 17:13:58 10° NNW
Cosmos 1908 Rocket 4.0 17:06:09 10° N 17:10:18 39° ENE 17:14:24 10° SE
CZ-4 R/B 2.3 17:08:19 10° ESE 17:11:28 24° ENE 17:14:37 10° NNE
Genesis I 4.1 17:08:20 10° NNW 17:11:45 28° NE 17:13:36 19° E
Aureole 1 Rocket 3.6 17:11:36 10° SSE 17:13:49 19° ESE 17:13:53 19° E
COSMO-SKYMED 1 3.5 17:11:25 15° NE 17:14:10 27° E 17:17:52 10° SSE
Nadezhda 4 Rocket 4.0 17:09:34 10° S 17:15:50 70° E 17:22:08 10° NNE
SL-4 R/B 2.1 17:13:00 10° W 17:16:43 59° NNW 17:19:09 22° ENE
PSLV R/B 4.3 17:13:35 10° N 17:17:44 65° WNW 17:21:48 10° SSW
Cosmos 1666 3.0 17:15:14 10° N 17:18:48 41° ENE 17:22:21 10° SSE
NOSS 7 (D) 4.0 17:16:11 10° NW 17:19:09 68° NE 17:22:30 10° SE
FengYun 1-2 T 4.4 17:17:28 10° SE 17:22:43 49° ENE 17:28:01 10° N
YAOGAN 1 3.4 17:19:04 10° SE 17:22:43 28° ENE 17:26:25 10° N
Cosmos 2278 Rocket 2.5 17:21:04 10° NNW 17:26:44 72° WSW 17:32:21 10° SSE
Okean 1-7 3.6 17:27:21 10° SSE 17:31:16 34° E 17:32:59 25° NE
Cosmos 2360 Rocket 4.2 17:27:46 10° W 17:32:05 22° NW 17:36:27 10° N
BREEZE-M DEB (TANK) 4.3 17:30:06 10° W 17:32:07 21° SW 17:33:56 10° SSE
FALCON 9 DEB 4.3 17:29:02 10° SSW 17:32:07 29° SE 17:32:52 27° ESE
Cosmos 1733 Rocket 4.1 17:30:48 10° NNW 17:35:00 47° W 17:39:13 10° SSW
Cosmos 2026 Rocket 4.1 17:32:26 10° SSE 17:38:11 47° E 17:43:57 10° NNE
Cosmos 2369 Rocket 3.5 17:36:00 10° N 17:39:54 21° NE 17:39:54 21° NE
ATLAS 2AS CENTAUR R/B 4.1 17:33:37 10° W 17:40:59 38° NNW 17:47:23 13° NNE
SL-16 R/B 2.8 17:37:06 10° S 17:42:13 36° ESE 17:44:01 29° ENE
SeaSat 1 4.0 17:45:12 18° NNE 17:45:12 18° NNE 17:47:36 10° N
NOAA 12 4.4 17:40:54 10° S 17:46:11 71° WSW 17:51:29 10° NNW
Cosmos 2333 Rocket 3.5 17:44:04 10° WSW 17:49:23 37° NW 17:54:45 10° NNE
CZ-4 R/B 4.3 17:45:48 10° SSE 17:49:56 69° ENE 17:54:05 10° N
BREEZE-M DEB (TANK) 2.1 17:47:45 10° W 17:52:11 73° S 17:52:48 52° ESE
Cosmos 2237 Rocket 2.3 17:47:40 10° SSW 17:53:22 78° WNW 17:57:42 18° NNE
Cosmos 1812 4.2 17:49:55 10° SW 17:53:30 36° WNW 17:57:07 10° N
STARLINK-52 4.0 17:50:52 10° SSW 17:53:56 35° SSE 17:53:56 35° SSE
Sich 1 Rocket 3.5 17:57:29 10° N 18:01:51 57° ENE 18:06:10 10° SSE
Cosmos 921 Rocket 2.8 17:57:40 10° NNW 18:01:56 68° ENE 18:04:17 26° SSE
STARLINK-29 3.8 17:58:51 10° SW 18:01:54 44° SSE 18:01:54 44° SSE
SKYMED 2 3.4 18:00:06 26° NNE 18:02:30 83° ESE 18:06:51 10° SSW
Cosmos 1782 Rocket 3.4 18:00:31 10° N 18:04:54 80° E 18:09:14 10° SSE
NOSS 0 Rocket 4.5 17:59:02 10° SW 18:05:09 58° NW 18:10:05 16° NNE
Cosmos 1627 Rocket 4.3 17:59:08 10° S 18:05:14 80° E 18:11:24 10° N
USA 215 3.9 18:02:28 25° NE 18:05:56 47° NNW 18:12:06 10° W
Cosmos 1655 Rocket 4.4 18:00:27 10° SSE 18:06:13 39° E 18:06:27 39° E
Cosmos 2219 Rocket 3.8 18:03:10 10° WSW 18:08:01 29° NW 18:12:52 10° N
YAOGAN 6 3.0 18:04:44 10° S 18:08:13 60° W 18:11:47 10° NNW
Cosmos 1174 4.2 18:08:14 10° SSW 18:13:07 56° SE 18:13:07 56° SE
Cosmos 614 Rocket 3.8 18:10:44 10° S 18:15:46 65° ESE 18:16:23 59° ENE
Cosmos 1703 Rocket 3.8 18:12:13 10° SSW 18:16:39 69° W 18:19:20 24° N
ISS -1.2 18:14:11 10° W 18:16:41 19° SW 18:18:22 14° S
Envisat 4.2 18:15:26 10° SSW 18:20:13 41° W 18:25:03 10° NNW
ATLAS 5 CENTAUR R/B 3.6 18:19:34 10° WSW 18:20:18 17° W 18:20:18 17° W
Cosmos 1943 Rocket 2.9 18:17:04 10° NNW 18:21:11 36° NNE 18:21:11 36° NNE
Cosmos 1092 Rocket 4.5 18:16:22 10° SSW 18:22:35 61° WNW 18:28:49 10° N
STARLINK-60 4.4 18:21:46 10° WSW 18:24:03 40° WSW 18:24:03 40° WSW
Cosmos 1441 Rocket 4.2 18:22:46 10° NNW 18:26:27 46° W 18:30:04 10° S
CSL-04 Rocket 3.7 18:23:12 10° S 18:28:28 75° WSW 18:33:48 10° NNW
Cosmos 2297 3.8 18:23:49 10° NNW 18:29:31 73° WSW 18:35:09 10° SSE
Cosmos 1140 Rocket 3.9 18:25:44 10° S 18:29:29 45° SSE 18:29:29 45° SSE
Cosmos 407 Rocket 3.3 18:25:55 10° SSW 18:31:06 84° ESE 18:31:32 75° NE
Meteor 1-18 Rocket 4.1 18:28:34 10° S 18:34:19 88° E 18:36:16 43° NNE
Cosmos 1867 3.5 18:35:33 10° NW 18:40:36 72° N 18:40:36 72° N
NOSS 3-1 (C) 4.2 18:36:07 10° NW 18:43:05 48° NE 18:43:13 47° NE
CZ-4 R/B 3.1 18:42:55 10° SSW 18:46:23 30° W 18:49:51 10° NNW
Lacrosse 5 rocket 3.1 18:44:17 10° W 18:47:04 26° NW 18:47:04 26° NW
COSMO-SKYMED 1 4.2 18:48:38 24° NNW 18:50:21 33° WNW 18:54:14 10° SW
USA 229 DEB 4.1 18:44:17 10° NW 18:50:47 50° NNE 18:50:47 50° NNE
USA 229 4.1 18:44:24 10° NW 18:50:51 50° NNE 18:50:51 50° NNE
S3M 3.8 18:47:15 10° N 18:53:32 88° W 18:59:41 10° S
NOSS 3-1 (A) 4.5 18:49:42 10° NW 18:55:38 41° NNE 18:55:38 41° NNE
SL-4 R/B 4.0 18:53:01 10° WNW 18:54:45 23° NW 18:54:45 23° NW
YAOGAN 1 4.2 18:54:50 10° SSW 18:58:44 32° W 19:02:40 10° NNW
Meteor 2-9 Rocket 4.4 18:53:48 10° NNW 18:59:41 74° W 19:00:31 63° SSW
Cosmos 2369 Rocket 3.8 19:19:17 10° NNW 19:21:43 27° NNW 19:21:43 27° NNW
SL-16 R/B 3.3 19:20:54 10° SW 19:25:57 41° WNW 19:25:57 41° WNW
ATLAS 2AS CENTAUR R/B 4.5 19:28:12 10° NW 19:34:23 23° N 19:34:49 23° N
Cosmos 2237 Rocket 4.4 19:34:35 10° W 19:38:24 18° NW 19:39:32 17° NNW
USA 215 4.5 19:49:49 32° NNW 19:49:49 32° NNW 19:54:01 10° WNW
Cosmos 2344 4.2 19:40:22 10° NW 19:50:00 84° NE 19:50:07 84° ENE
Cosmos 1943 Rocket 4.5 20:01:02 10° NW 20:02:45 19° NW 20:02:45 19° NW
